Tracking 26325 objects as of 29-Nov-2022
HD Live streaming from Space Station
objects crossing your sky now

COSMOS 1375 DEB

Track COSMOS 1375 DEB now!
10-day predictions


NORAD ID: 17799
Int'l Code: 1982-055AR
Perigee: 902.8 km
Apogee: 945.4 km
Inclination: 65.8 °
Period: 103.3 minutes
Semi major axis: 7295 km
RCS: 0.043 m2 (small)
Launch date: June 6, 1982
Source: Commonwealth of Independent States (former USSR) (CIS)
Launch site: PLESETSK MISSILE AND SPACE COMPLEX (PKMTR)

Note: This is SATELLITE DEBRIS
aabbcc
Your satellite tracking list
Your tracking list is empty




NASA's NSSDC Master Catalog

Two Line Element Set (TLE):
1 17799U 82055AR  22332.52570795  .00000417  00000-0  38220-3 0  9995
2 17799  65.8400  29.6265 0029259 321.9612 151.9832 13.93337265879004
Source of the keplerian elements: AFSPC